Weather History for Port Heiden, AK

Change the Weather History Date:

Saturday, January 19, 2013

  Actual Average Record
Temperature  
Mean Temperature 28 °F -  
Max Temperature 44 °F 30 °F 44 °F (2003)
Min Temperature 12 °F 21 °F -14 °F (2004)
Degree Days  
Heating Degree Days 37    
Moisture  
Dew Point 29 °F    
Average Humidity 63    
Maximum Humidity 70    
Minimum Humidity 44    
Precipitation  
Precipitation 2.52 in - - ()
Sea Level Pressure  
Sea Level Pressure 29.31 in    
Wind  
Wind Speed 25 mph (ESE)    
Max Wind Speed 38 mph    
Max Gust Speed 50 mph    
Visibility 10 miles    
Events      
Averages and records for this station are not official NWS values.
T = Trace of Precipitation, MM = Missing Value Source: NWS Daily Summary

Daily Weather History Graph

Daily Weather History Graph

Search for Another Location

Airport:

Trip Planner

Search our weather history database for the weather conditions in past years. The results will help you decide how hot, cold, wet, or windy it might be!

Date:

Astronomy

Jan. 19, 2013 Rise Set
Actual Time 9:55 AM AKST 5:36 PM AKST
Civil Twilight 9:10 AM AKST 6:21 PM AKST
Nautical Twilight 8:21 AM AKST 7:09 PM AKST
Astronomical Twilight 7:36 AM AKST 7:55 PM AKST
Moon 12:21 PM AKST (1/19) 3:24 AM AKST (1/19)
Length of Visible Light 9h 11m
Length of Day
7h 41m
First Quarter, 58% of the Moon is Illuminated
Jan 19
First Quarter
Jan 26
Full
Feb 3
Last Quarter
Feb 9
New
Feb 17
First Quarter

Hourly Weather History & Observations

Time (AKST) Temp. Windchill Dew Point Humidity Pressure Visibility Wind Dir Wind Speed Gust Speed Precip Events Conditions
12:16 AM 37.4 °F 26.9 °F 24.8 °F 60% 29.66 in 10.0 mi East 20.7 mph - N/A   Overcast
12:36 AM 37.4 °F 27.8 °F 24.8 °F 60% 29.65 in 10.0 mi East 17.3 mph 29.9 mph 0.01 in   Overcast
12:56 AM 35.6 °F 23.4 °F 24.8 °F 65% 29.63 in 10.0 mi East 25.3 mph 31.1 mph 0.01 in   Overcast
1:16 AM 37.4 °F 26.1 °F 24.8 °F 60% 29.62 in 10.0 mi East 24.2 mph 31.1 mph N/A   Overcast
1:36 AM 39.2 °F 27.4 °F 26.6 °F 61% 29.60 in 10.0 mi East 29.9 mph 38.0 mph 0.74 in   Overcast
1:56 AM 37.4 °F 25.9 °F 24.8 °F 60% 29.58 in 10.0 mi East 25.3 mph 38.0 mph 1.02 in   Overcast
2:16 AM 37.4 °F 26.4 °F 26.6 °F 65% 29.59 in 10.0 mi East 23.0 mph 40.3 mph 0.02 in   Mostly Cloudy
2:36 AM 37.4 °F 24.6 °F 24.8 °F 60% 29.57 in 10.0 mi East 32.2 mph 42.6 mph 0.05 in   Overcast
3:16 AM 37.4 °F 25.9 °F 26.6 °F 65% 29.56 in 10.0 mi East 25.3 mph 32.2 mph N/A   Overcast
3:36 AM 37.4 °F 25.0 °F 24.8 °F 60% 29.55 in 10.0 mi East 29.9 mph 38.0 mph N/A   Overcast
3:56 AM 37.4 °F 29.8 °F 26.6 °F 65% 29.54 in 10.0 mi East 11.5 mph 35.7 mph N/A   Overcast
4:16 AM 39.2 °F 29.3 °F 26.6 °F 61% 29.50 in 10.0 mi East 20.7 mph 34.5 mph 0.02 in   Mostly Cloudy
4:36 AM 39.2 °F 28.7 °F 24.8 °F 56% 29.50 in 10.0 mi ESE 23.0 mph 34.5 mph 0.05 in   Scattered Clouds
4:56 AM 39.2 °F 29.3 °F 26.6 °F 61% 29.50 in 10.0 mi ESE 20.7 mph 38.0 mph 0.07 in   Mostly Cloudy
5:16 AM 39.2 °F 28.0 °F 26.6 °F 61% 29.48 in 10.0 mi SE 26.5 mph 34.5 mph N/A   Overcast
5:36 AM 39.2 °F 29.6 °F 26.6 °F 61% 29.48 in 10.0 mi ESE 19.6 mph 32.2 mph 0.02 in   Overcast
5:56 AM 41.0 °F 30.9 °F 26.6 °F 57% 29.45 in 10.0 mi ESE 24.2 mph 33.4 mph 0.05 in   Overcast
6:16 AM 42.8 °F 32.5 °F 26.6 °F 53% 29.44 in 10.0 mi ESE 28.8 mph 44.9 mph 0.07 in   Overcast
6:36 AM 41.0 °F 33.5 °F 26.6 °F 57% 29.44 in 10.0 mi ESE 13.8 mph 33.4 mph 0.07 in   Mostly Cloudy
6:56 AM 42.8 °F 34.3 °F 26.6 °F 53% 29.41 in 10.0 mi ESE 19.6 mph 40.3 mph 0.08 in   Mostly Cloudy
7:16 AM 41.0 °F 33.9 °F 26.6 °F 57% 29.41 in 10.0 mi ESE 12.7 mph 21.9 mph N/A   Overcast
7:36 AM 39.2 °F 30.2 °F 26.6 °F 61% 29.40 in 10.0 mi East 17.3 mph 21.9 mph N/A   Overcast
7:56 AM 41.0 °F 30.9 °F 28.4 °F 61% 29.38 in 10.0 mi ESE 24.2 mph 34.5 mph N/A   Overcast
8:16 AM 41.0 °F 33.5 °F 28.4 °F 61% 29.39 in 10.0 mi ESE 13.8 mph 31.1 mph N/A   Overcast
8:36 AM 41.0 °F 32.8 °F 28.4 °F 61% 29.41 in 10.0 mi ESE 16.1 mph 27.6 mph 0.01 in   Overcast
8:56 AM 39.2 °F 31.6 °F 28.4 °F 65% 29.41 in 10.0 mi East 12.7 mph 24.2 mph 0.03 in   Overcast
9:16 AM 41.0 °F 34.3 °F 30.2 °F 65% 29.39 in 10.0 mi East 11.5 mph 18.4 mph 0.02 in   Overcast
9:36 AM 39.2 °F 33.0 °F 30.2 °F 70% 29.36 in 10.0 mi ESE 9.2 mph 20.7 mph 0.06 in   Overcast
9:56 AM 41.0 °F 29.0 °F 30.2 °F 65% 29.30 in 10.0 mi East 35.7 mph 41.4 mph 0.06 in   Overcast
10:16 AM 42.8 °F 31.1 °F 28.4 °F 57% 29.32 in 10.0 mi East 38.0 mph 49.5 mph 0.87 in   Overcast
10:36 AM 42.8 °F 31.3 °F 30.2 °F 61% 29.33 in 10.0 mi East 36.8 mph 44.9 mph 1.71 in   Overcast
10:56 AM 41.0 °F 28.8 °F 30.2 °F 65% 29.32 in 10.0 mi ENE 36.8 mph 47.2 mph 1.89 in   Overcast
11:16 AM 41.0 °F 29.8 °F 30.2 °F 65% 29.33 in 10.0 mi ENE 29.9 mph 46.0 mph 0.01 in   Overcast
11:36 AM 41.0 °F 30.0 °F 30.2 °F 65% 29.31 in 10.0 mi NE 28.8 mph 42.6 mph 0.02 in   Overcast
11:56 AM 39.2 °F 28.7 °F 30.2 °F 70% 29.32 in 10.0 mi ENE 23.0 mph 39.1 mph 0.02 in   Overcast
12:16 PM 41.0 °F 30.0 °F 32.0 °F 70% 29.30 in 10.0 mi ESE 28.8 mph 34.5 mph 0.10 in   Overcast
12:36 PM 41.0 °F 29.8 °F 30.2 °F 65% 29.27 in 8.0 mi ESE 29.9 mph 42.6 mph 0.26 in   Overcast
12:56 PM 41.0 °F 29.5 °F 30.2 °F 65% 29.27 in 7.0 mi ESE 32.2 mph 46.0 mph 0.32 in   Overcast
1:16 PM 41.0 °F 29.1 °F 30.2 °F 65% 29.23 in 8.0 mi ESE 34.5 mph 43.7 mph 0.07 in   Overcast
1:36 PM 42.8 °F 32.1 °F 30.2 °F 61% 29.23 in 10.0 mi ESE 31.1 mph 40.3 mph 0.10 in   Scattered Clouds
1:56 PM 42.8 °F 32.7 °F 30.2 °F 61% 29.23 in 10.0 mi ESE 27.6 mph 36.8 mph 0.11 in   Scattered Clouds
2:16 PM 44.6 °F 34.1 °F 30.2 °F 57% 29.20 in 10.0 mi ESE 34.5 mph 42.6 mph 0.03 in   Clear
2:36 PM 44.6 °F 34.6 °F 30.2 °F 57% 29.20 in 10.0 mi ESE 31.1 mph 40.3 mph 0.09 in   Clear
2:56 PM 44.6 °F 34.2 °F 30.2 °F 57% 29.19 in 10.0 mi SE 33.4 mph - 0.10 in   Clear
3:16 PM - - - N/A% 29.17 in 10.0 mi SE 29.9 mph 39.1 mph 0.02 in   Partly Cloudy
3:36 PM - - - N/A% 29.15 in 10.0 mi SE 28.8 mph 40.3 mph 0.03 in   Scattered Clouds
3:56 PM - - - N/A% 29.14 in 10.0 mi SE 32.2 mph 41.4 mph 0.07 in   Scattered Clouds
4:16 PM - - - N/A% 29.14 in 10.0 mi SE 27.6 mph 41.4 mph 0.03 in   Partly Cloudy
4:36 PM 41.0 °F 29.5 °F 30.2 °F 65% 29.15 in 10.0 mi SE 32.2 mph 40.3 mph 0.03 in   Mostly Cloudy
4:56 PM 41.0 °F 30.0 °F 30.2 °F 65% 29.14 in 10.0 mi SE 28.8 mph 38.0 mph 0.04 in   Mostly Cloudy
5:16 PM 39.2 °F 27.2 °F 30.2 °F 70% 29.14 in 9.0 mi SE 31.1 mph - N/A   Mostly Cloudy
5:36 PM 39.2 °F 28.0 °F 30.2 °F 70% 29.15 in 10.0 mi SE 26.5 mph 33.4 mph N/A   Overcast
5:56 PM 39.2 °F 28.5 °F 30.2 °F 70% 29.15 in 9.0 mi SE 24.2 mph 33.4 mph N/A   Mostly Cloudy
6:16 PM 39.2 °F 27.6 °F 30.2 °F 70% 29.14 in 10.0 mi SE 28.8 mph 33.4 mph N/A   Overcast
6:36 PM 39.2 °F 27.4 °F 30.2 °F 70% 29.12 in 10.0 mi ESE 29.9 mph 35.7 mph N/A   Overcast
6:56 PM 39.2 °F 27.6 °F 30.2 °F 70% 29.14 in 10.0 mi SE 28.8 mph 32.2 mph N/A   Mostly Cloudy
7:16 PM 39.2 °F 28.5 °F 30.2 °F 70% 29.14 in 10.0 mi SE 24.2 mph 32.2 mph 0.02 in   Mostly Cloudy
7:36 PM 39.2 °F 28.5 °F 30.2 °F 70% 29.14 in 10.0 mi SE 24.2 mph 35.7 mph 0.02 in   Overcast
7:56 PM 39.2 °F 28.7 °F 30.2 °F 70% 29.13 in 10.0 mi SE 23.0 mph 28.8 mph 0.02 in   Mostly Cloudy
8:16 PM 39.2 °F 29.0 °F 30.2 °F 70% 29.14 in 10.0 mi SE 21.9 mph 36.8 mph N/A   Overcast
8:36 PM 39.2 °F 26.6 °F 30.2 °F 70% 29.10 in 10.0 mi SE 34.5 mph 38.0 mph N/A   Overcast
8:56 PM 39.2 °F 27.0 °F 30.2 °F 70% 29.11 in 10.0 mi SE 32.2 mph 42.6 mph N/A   Mostly Cloudy
9:16 PM 39.2 °F 27.4 °F 30.2 °F 70% 29.10 in 10.0 mi SE 29.9 mph 42.6 mph N/A   Mostly Cloudy
9:36 PM 39.2 °F 27.2 °F 30.2 °F 70% 29.11 in 10.0 mi SE 31.1 mph 35.7 mph N/A   Overcast
9:56 PM 39.2 °F 27.4 °F 30.2 °F 70% 29.11 in 10.0 mi SE 29.9 mph 38.0 mph N/A   Scattered Clouds
10:16 PM - - - N/A% 29.10 in 10.0 mi SE 31.1 mph 40.3 mph N/A   Clear
10:36 PM - - - N/A% 29.10 in 10.0 mi SE 33.4 mph 40.3 mph N/A   Partly Cloudy
10:56 PM 39.2 °F 27.8 °F 30.2 °F 70% 29.12 in 10.0 mi SE 27.6 mph 36.8 mph N/A   Partly Cloudy
11:16 PM 41.0 °F 29.3 °F 30.2 °F 65% 29.14 in 10.0 mi SSE 33.4 mph 44.9 mph N/A   Mostly Cloudy
11:36 PM - - - N/A% 29.16 in 10.0 mi SSE 32.2 mph 40.3 mph N/A   Overcast
11:56 PM 41.0 °F 29.1 °F 28.4 °F 61% 29.18 in 10.0 mi SSE 34.5 mph 39.1 mph N/A   Overcast